Location: Potomac
(46.8816°N, 113.5795°W)
Time: 08:41:30
(UTC+00:00)

NANOSAT C BR1 - Pass Details

Date: 01 July 2022
Orbit: 584 x 599 km, 98.0° (Epoch: 09 August)

Event Time Altitude Azimuth Distance (km) Brightness Sun altitude
Rises 10:49:14 0° 1° (N) 2,849 ? -7.8°
Reaches altitude 10° 10:51:44 10° 348° (NNW) 1,945 ? -7.5°
Maximum altitude 10:55:04 23° 295° (WNW) 1,284 ? -7.2°
Drops below altitude 10° 10:58:23 10° 243° (WSW) 1,939 ? -6.7°
Enters shadow 10:58:56 - 239° (WSW) 2,124 ? -6.7°
